Regional Weather Roundup
Issued by NWS

Home | Current Version | Previous Version | Graphics & Text | Print | Product List | Glossary On
Versions: 1 2 3 4 5 6 7 8 9 10 11 12 13 14 15 16 17 18 19 20 21 22 23 24 25 26 27 28 29 30 31 32 33 34 35 36 37 38 39 40 41 42 43 44 45 46 47 48 49 50
000
ASUS43 KTOP 260459
RWRKS

WEATHER ROUNDUP FOR KANSAS
NATIONAL WEATHER SERVICE GOODLAND KS
1200 AM CDT TUE MAY 26 2015

NOTE:  "FAIR" INDICATES FEW OR NO CLOUDS BELOW 12,000 FEET WITH NO
SIGNIFICANT WEATHER AND/OR OBSTRUCTIONS TO VISIBILITY.

KSZ001>006-013>018-027>032-041>047-260600-
NORTHWEST KANSAS

CITY           SKY/WX    TMP DP  RH WIND       PRES   REMARKS
GOODLAND       PTCLDY    51  47  86 W7        29.94R
HAYS           CLOUDY    63  54  72 S7        29.84R
HILL CITY      CLOUDY    61  51  70 NW9       29.85R
RUSSELL        CLOUDY    61  57  87 S17       29.82S
$$

KSZ061>065-074>080-084>089-260600-
SOUTHWEST KANSAS

CITY           SKY/WX    TMP DP  RH WIND       PRES   REMARKS
DODGE CITY     MOCLDY    61  52  72 SW7       29.87S
ELKHART          N/A     59  50  72 NW2         N/A
GARDEN CITY    PTCLDY    59  52  77 S5        29.87S
GREAT BEND     CLOUDY    61  55  82 SE16G24   29.86R THUNDER
LIBERAL        PTCLDY    57  50  77 S7        29.90R
$$

KSZ066>073-081>083-090>101-260600-
SOUTHEAST KANSAS

CITY           SKY/WX    TMP DP  RH WIND       PRES   REMARKS
CHANUTE        CLOUDY    64  60  87 NW8       29.83F
COFFEYVILLE    RAIN      63  61  93 NW9       29.83R FOG
HUTCHINSON     CLOUDY    61  57  87 SE5       29.83F
NEWTON         CLOUDY    61  54  77 SE6       29.85F
PARSONS        CLOUDY    65  60  84 NW5       29.85S
WICHITA INTL   LGT RAIN  61  58  90 NW6       29.85R
WICHITA JABRA  CLOUDY    60  57  89 W3        29.85R
WINFIELD       CLOUDY    62  58  86 CALM      29.84S
$$

KSZ007>012-019>026-033>040-048>060-102>105-260600-
NORTHEAST KANSAS

CITY           SKY/WX    TMP DP  RH WIND       PRES   REMARKS
CONCORDIA      CLOUDY    62  55  77 SW9       29.79R
EMPORIA        LGT RAIN  61  58  90 W8        29.83F
LAWRENCE       TSTM      65  58  78 N7        29.88R
MANHATTAN      LGT RAIN  64  59  83 S14G21    29.79F
OLATHE IND     TSTM      63  61  93 CALM      29.85R FOG
OLATHE EXE     RAIN      64  62  93 NW3       29.84R
SALINA         CLOUDY    64  55  72 SW16      29.79R
TOPEKA BILLARD LGT RAIN  62  61  96 CALM      29.86R
TOPEKA FORBES  CLOUDY    63  59  87 NW5       29.85F
$$



USA.gov is the U.S. government's official web portal to all federal, state and local government web resources and services.